Hourly Data Report for September 26, 2020

TORONTO CITY
ONTARIO
Current Station Operator: ECCC - MSC

43°40'00.000" N
79°24'00.000" W
112.50 m
6158355
71508
XTO

Download Data

Hourly Data (September 2020)
Hourly Data Report for September 26, 2020
TIME
LST
Temp Definition
°C
Dew Point Definition
°C
Rel Hum Definition
%
Precip. Amount Definition
mm

Wind Dir Definition
10's deg

Wind Spd Definition
km/h
Visibility Definition
km
Stn Press Definition
kPa
Hmdx Definition


Wind Chill Definition


Weather Definition


00:00 17.6 13.5 77 0.0       100.18     LegendNANA
01:00 16.9 14.1 84 0.0       100.17     LegendNANA
02:00 16.5 14.0 86 0.0       100.15     LegendNANA
03:00 15.8 13.6 87 0.0       100.09     LegendNANA
04:00 15.6 13.4 87 0.0       100.16     LegendNANA
05:00 15.0 13.1 88 0.0       100.17     LegendNANA
06:00 14.7 12.9 89 0.0       100.17     LegendNANA
07:00 14.8 13.3 90 0.0       100.15     LegendNANA
08:00 16.2 14.6 90 0.0       100.14     LegendNANA
09:00 19.1 15.7 81 0.0       100.13     LegendNANA
10:00 20.2 14.1 68 0.0       100.09     LegendNANA
11:00 21.6 14.4 64 0.0       100.07 25   LegendNANA
12:00 22.7 13.6 56 0.2       99.98 26   LegendNANA
13:00 23.3 13.3 53 0.5       99.93 26   LegendNANA
14:00 24.1 13.7 52 0.2       99.86 27   LegendNANA
15:00 24.3 13.8 52 0.0       99.80 28   LegendNANA
16:00 24.0 14.2 54 0.0       99.77 27   LegendNANA
17:00 23.2 14.0 56 0.0       99.73 27   LegendNANA
18:00 22.2 14.3 61 0.0       99.76 26   LegendNANA
19:00 21.7 14.6 64 0.0       99.75 25   LegendNANA
20:00 21.6 14.9 66 0.0       99.79 26   LegendNANA
21:00 20.6 14.7 69 0.0       99.78     LegendNANA
22:00 20.3 14.8 71 0.0       99.71     LegendNANA
23:00 19.7 15.0 74 0.0       99.67     LegendNANA

Notes on Data Quality.

Legend

  • E = Estimated
  • M = Missing
  • NA = Not Available*
  • [empty] = Indicates an unobserved value
Date modified: